Location: Unspecified
(0.0000°N, 0.0000°E)
Time: 14:35:29
(UTC+01:00)

Resurs 01 Rocket - Visible Passes

Search period start: 09 December 2016 00:00
Search period end: 19 December 2016 00:00
Orbit: 635 x 644 km, 98.2° (Epoch: 09 December)

Date Brightness Start Highest point End Pass type
(mag) Time Alt. Az. Time Alt. Az. Time Alt. Az.
09 Dec 1.7 20:16:22 10° SSE 20:20:36 48° E 20:20:36 48° E visible
10 Dec 1.6 20:39:30 10° S 20:43:55 78° W 20:44:19 70° NW visible
11 Dec 3.1 21:03:11 10° SSW 21:07:12 35° WSW 21:08:01 32° WNW visible
12 Dec 2.9 19:51:01 10° SE 19:54:09 20° E 19:54:09 20° E visible
12 Dec 4.2 21:27:37 10° SW 21:30:29 17° WSW 21:31:44 15° W visible
13 Dec 1.9 20:13:23 10° SSE 20:17:34 42° ENE 20:17:52 42° ENE visible
14 Dec 1.5 20:36:26 10° S 20:40:51 87° WSW 20:41:34 63° NNW visible
15 Dec 2.9 21:00:02 10° S 21:04:09 39° WSW 21:05:17 33° WNW visible
16 Dec 3.0 19:48:12 10° ESE 19:51:13 18° ENE 19:51:25 18° ENE visible
16 Dec 4.1 21:24:19 10° SSW 21:27:26 19° WSW 21:29:00 16° WNW visible
17 Dec 2.0 20:10:25 10° SE 20:14:31 38° ENE 20:15:08 36° ENE visible
18 Dec 1.4 20:33:23 10° SSE 20:37:48 84° ENE 20:38:50 53° N visible
